星链-34328 (STARLINK-34328)

导读

STARLINK-34328是美国于2025年6月5日发射的星链系列卫星,隶属于SpaceX星链星座项目。星链计划旨在构建全球卫星互联网星座,为全球偏远地区、海洋等网络覆盖薄弱区域提供高速低延迟的宽带服务,该卫星加入后进一步扩充了星链星座的在轨卫星规模,提升全球网络覆盖能力。

基本信息
目录编号:
64220
目录名称:
STARLINK-34328
国际标识:
2025-117T
轨道中心:
EARTH
卫星名称:
星链-34328
卫星全名:
星链-34328 (STARLINK-34328)
卫星状态:
在轨 (已飞行378 天)
发射日期:
2025-05-31 UTC
国别 :
美国 (US)
星等 :
--
轨道信息
数据来源 国际轨道数据
星历时间: 2026-06-13T22:40:39+0800
9小时前
查看轨道信息
半长轴: 6843.3km
偏心率: 0.0001446
轨道倾角: 53.162°
近地点辐角 72.853°
升交点赤经 313.923°
平近点角 287.264°
近地点: 464.173km
远地点: 466.153km
周期: 93.898分钟
每日圈数: 15.335729
详细信息
固有亮度:
5
最大亮度:
2.5
卫星平台:
Starlink V1.0
覆盖范围:
全球
运营商:
太空探索技术公司
运营商所在国:
美国
制造商(研发单位):
太空探索技术公司
制造商所在国:
美国
使用方式:
暂无
卫星简介
Starlink 计划是 SpaceX 推出的全球卫星互联网项目,通过发射低轨道卫星,为全球尤其是偏远地区提供高速、低延迟的互联网服务。自 2019 年起,Starlink 已部署数千颗卫星,旨在缩小全球数字鸿沟,推动互联网普及。该项目还为军事、航空等行业提供通信支持,带来广泛经济效益。
2D轨道图
3D轨道图
轨道高度分析图
轨道倾角分析图
轨道综合分析图
查看轨道综合分析图